Location: Cran-Gévrier
(45.9039°N, 6.1012°E)
Time: 11:54:45
(UTC+00:00)

Cosmos 2219 Rocket - Pass Details

Date: 09 February 2023
Orbit: 826 x 848 km, 71.0° (Epoch: 30 March)

Event Time Altitude Azimuth Distance (km) Brightness Sun altitude
Rises 18:07:20 0° 211° (SSW) 3,352 5.9 -13.4°
Reaches altitude 10° 18:09:45 10° 213° (SSW) 2,424 5.2 -13.8°
Maximum altitude 18:15:18 72° 298° (WNW) 875 2.4 -14.8°
Drops below altitude 10° 18:20:55 10° 23° (NNE) 2,451 4.3 -15.8°
Enters shadow 18:23:07 - 25° (NNE) 3,289 5.0 -16.2°
